Weather History for Challis, ID

Change the Weather History Date:

Wednesday, January 8, 2014

  Actual Average Record
Temperature  
Mean Temperature 26 °F 18 °F  
Max Temperature 33 °F 28 °F 52 °F (2000)
Min Temperature 19 °F 8 °F -32 °F (1937)
Degree Days  
Heating Degree Days 39 47  
Month to date heating degree days 347 379  
Since 1 July heating degree days 3803 3875  
Cooling Degree Days 0 0  
Month to date cooling degree days 0 0  
Year to date cooling degree days 0 0  
Moisture  
Dew Point 20 °F    
Average Humidity 79    
Maximum Humidity 92    
Minimum Humidity 66    
Precipitation  
Precipitation 0.01 in 0.02 in 0.40 in (1898)
Month to date precipitation 0.01 0.16  
Year to date precipitation 0.01 0.16  
Sea Level Pressure  
Sea Level Pressure 30.07 in    
Wind  
Wind Speed 1 mph (North)    
Max Wind Speed 7 mph    
Max Gust Speed 8 mph    
Visibility 9 miles    
Events Snow    
T = Trace of Precipitation, MM = Missing Value Source: NWS Daily Summary

Daily Weather History Graph

Daily Weather History Graph

Search for Another Location

Airport:

Trip Planner

Search our weather history database for the weather conditions in past years. The results will help you decide how hot, cold, wet, or windy it might be!

Date:

Astronomy

Jan. 08, 2014 Rise Set
Actual Time 8:12 AM MST 5:14 PM MST
Civil Twilight 7:39 AM MST 5:47 PM MST
Nautical Twilight 7:03 AM MST 6:24 PM MST
Astronomical Twilight 6:28 AM MST 6:59 PM MST
Moon 12:17 PM MST (1/8) 1:14 AM MST (1/8)
Length of Visible Light 10h 08m
Length of Day
9h 02m
First Quarter, 56% of the Moon is Illuminated
Jan 8
First Quarter
Jan 15
Full
Jan 23
Last Quarter
Jan 30
New
Feb 6
First Quarter

Hourly Weather History & Observations

Time (MST) Temp. Windchill Dew Point Humidity Pressure Visibility Wind Dir Wind Speed Gust Speed Precip Events Conditions
12:55 AM 24.1 °F - 17.1 °F 75% 30.12 in 10.0 mi Calm Calm - N/A   Overcast
1:55 AM 23.0 °F - 17.1 °F 78% 30.10 in 10.0 mi Calm Calm - N/A   Overcast
2:55 AM 23.0 °F 18.4 °F 16.0 °F 74% 30.12 in 10.0 mi West 3.5 mph - N/A   Overcast
3:55 AM 24.1 °F - 17.1 °F 75% 30.11 in 10.0 mi Calm Calm - N/A   Overcast
4:55 AM 23.0 °F - 17.1 °F 78% 30.10 in 10.0 mi Calm Calm - N/A   Overcast
5:55 AM 24.1 °F - 19.0 °F 81% 30.10 in 2.5 mi Calm Calm - 0.00 in Snow Light Snow
6:08 AM 23.0 °F - 19.0 °F 85% 30.00 in 4.0 mi Calm Calm - 0.01 in Snow Light Snow
6:33 AM 23.0 °F - 19.9 °F 88% 30.00 in 2.5 mi Calm Calm - 0.01 in Snow Light Snow
6:55 AM 21.9 °F - 19.9 °F 92% 30.12 in 6.0 mi Calm Calm - 0.01 in Snow Light Snow
7:55 AM 21.9 °F - 19.0 °F 89% 30.13 in 9.0 mi Calm Calm - 0.00 in   Overcast
8:55 AM 19.9 °F - 18.0 °F 92% 30.16 in 10.0 mi Calm Calm - 0.00 in   Mostly Cloudy
9:55 AM 24.1 °F - 21.0 °F 88% 30.16 in 10.0 mi Calm Calm - N/A   Overcast
10:55 AM 25.0 °F - 21.9 °F 88% 30.14 in 10.0 mi Calm Calm - N/A   Scattered Clouds
11:55 AM 27.0 °F 23.0 °F 21.0 °F 78% 30.12 in - NE 3.5 mph - N/A   Overcast
12:55 PM 28.0 °F 24.2 °F 23.0 °F 81% 30.09 in 10.0 mi NNE 3.5 mph - N/A   Overcast
1:55 PM 30.0 °F - 23.0 °F 75% 30.06 in 10.0 mi Calm Calm - N/A   Overcast
2:56 PM 32.0 °F 28.7 °F 23.0 °F 69% 30.05 in 10.0 mi NNW 3.5 mph - N/A   Unknown
3:55 PM 32.0 °F - 24.1 °F 73% 30.04 in 10.0 mi Calm Calm - N/A   Overcast
4:55 PM 30.0 °F - 24.1 °F 79% 30.04 in 10.0 mi Calm Calm - N/A   Overcast
5:55 PM 27.0 °F - 21.9 °F 81% 30.06 in 10.0 mi Calm Calm - N/A   Overcast
6:55 PM 23.0 °F - 19.9 °F 88% 30.07 in 10.0 mi Calm Calm - N/A   Scattered Clouds
7:55 PM 23.0 °F 17.0 °F 19.9 °F 88% 30.05 in 10.0 mi North 4.6 mph - N/A   Mostly Cloudy
8:55 PM 26.1 °F 20.5 °F 21.9 °F 84% 30.04 in 10.0 mi Variable 4.6 mph - N/A   Overcast
9:55 PM 23.0 °F - 19.9 °F 88% 30.01 in 10.0 mi Calm Calm - N/A   Mostly Cloudy
10:55 PM 24.1 °F 19.7 °F 21.0 °F 88% 29.99 in 10.0 mi North 3.5 mph - N/A   Clear
11:55 PM 25.0 °F - 21.9 °F 88% 29.86 in 10.0 mi Calm Calm - N/A   Overcast